QPF
0.09 0.09 0.08 0.05 0.04 0.04 0.05 0.08 0.09 0.09 0.08 0.04 0.02 0.02 0.02 0.03 0.05 0.04 0.04 0.06 0.03 0.01 0.01 0.00 0.00 0.00 0.00 0.00 0.00 0.00 0.00 0.00 0.00 0.01 0.01 0.01 0.01 0.01
0.14 0.14 0.13 0.10 0.09 0.07 0.07 0.07 0.08 0.10 0.08 0.04 0.03 0.02 0.03 0.04 0.06 0.04 0.04 0.04 0.02 0.01 0.01 0.01 0.01 0.00 0.00 0.00 0.00 0.00 0.00 0.00 0.00 0.00 0.00 0.00 0.00 0.01
0.14 0.15 0.15 0.14 0.12 0.08 0.06 0.06 0.07 0.08 0.08 0.07 0.06 0.05 0.05 0.05 0.05 0.04 0.02 0.03 0.02 0.03 0.02 0.02 0.01 0.01 0.00 0.01 0.01 0.01 0.01 0.00 0.00 0.00 0.00 0.00 0.00 0.00
0.14 0.14 0.12 0.12 0.11 0.09 0.09 0.09 0.10 0.11 0.10 0.09 0.09 0.08 0.06 0.04 0.05 0.04 0.02 0.02 0.03 0.05 0.03 0.02 0.01 0.01 0.01 0.00 0.00 0.00 0.00 0.00 0.00 0.00 0.00 0.00 0.00 0.00
0.13 0.12 0.10 0.11 0.10 0.09 0.10 0.09 0.09 0.08 0.07 0.07 0.07 0.07 0.06 0.05 0.06 0.06 0.05 0.05 0.02 0.03 0.03 0.02 0.02 0.01 0.01 0.01 0.00 0.00 0.00 0.00 0.00 0.00 0.00 0.00 0.00 0.00
0.13 0.12 0.10 0.10 0.10 0.11 0.11 0.11 0.10 0.10 0.10 0.09 0.07 0.07 0.06 0.05 0.07 0.06 0.06 0.06 0.04 0.02 0.02 0.02 0.02 0.01 0.01 0.01 0.01 0.01 0.00 0.00 0.00 0.00 0.00 0.00 0.00 0.00
0.12 0.11 0.11 0.13 0.14 0.12 0.10 0.12 0.12 0.11 0.11 0.10 0.09 0.08 0.07 0.08 0.08 0.07 0.06 0.05 0.04 0.03 0.03 0.02 0.03 0.03 0.03 0.02 0.02 0.01 0.01 0.01 0.00 0.00 0.00 0.00 0.00 0.00
0.15 0.14 0.12 0.14 0.11 0.09 0.07 0.07 0.07 0.08 0.08 0.09 0.09 0.09 0.09 0.09 0.08 0.05 0.06 0.06 0.05 0.04 0.05 0.03 0.03 0.04 0.04 0.04 0.04 0.03 0.03 0.02 0.02 0.01 0.01 0.00 0.00 0.00
0.18 0.17 0.13 0.12 0.13 0.13 0.11 0.08 0.07 0.06 0.06 0.07 0.09 0.09 0.08 0.08 0.07 0.07 0.07 0.07 0.06 0.05 0.07 0.04 0.03 0.05 0.04 0.05 0.04 0.03 0.03 0.03 0.02 0.02 0.01 0.01 0.01 0.01
0.16 0.17 0.17 0.15 0.13 0.13 0.13 0.13 0.10 0.09 0.07 0.07 0.09 0.10 0.10 0.10 0.09 0.07 0.07 0.06 0.06 0.06 0.07 0.05 0.05 0.05 0.03 0.04 0.03 0.03 0.02 0.01 0.01 0.01 0.01 0.00 0.00 0.00
0.14 0.14 0.15 0.14 0.12 0.11 0.13 0.14 0.12 0.11 0.08 0.08 0.09 0.08 0.08 0.07 0.06 0.05 0.05 0.05 0.04 0.04 0.05 0.04 0.04 0.04 0.03 0.03 0.02 0.01 0.01 0.00 0.00 0.00 0.00 0.00 0.00 0.00
0.12 0.12 0.12 0.09 0.08 0.09 0.11 0.13 0.14 0.14 0.12 0.10 0.08 0.07 0.06 0.05 0.03 0.04 0.05 0.05 0.05 0.04 0.03 0.03 0.03 0.02 0.02 0.02 0.02 0.02 0.02 0.01 0.01 0.00 0.00 0.00 0.00 0.00
0.11 0.10 0.08 0.08 0.07 0.08 0.08 0.08 0.08 0.08 0.07 0.07 0.07 0.07 0.06 0.06 0.05 0.04 0.04 0.04 0.05 0.05 0.04 0.03 0.03 0.03 0.03 0.03 0.02 0.02 0.02 0.02 0.02 0.02 0.01 0.01 0.01 0.01
0.09 0.08 0.08 0.09 0.08 0.08 0.07 0.06 0.06 0.06 0.07 0.08 0.09 0.09 0.10 0.10 0.09 0.08 0.06 0.05 0.05 0.05 0.06 0.06 0.06 0.05 0.05 0.04 0.03 0.02 0.02 0.02 0.02 0.02 0.02 0.02 0.01 0.01
0.06 0.05 0.05 0.04 0.04 0.04 0.06 0.07 0.08 0.09 0.10 0.12 0.12 0.12 0.12 0.12 0.11 0.10 0.08 0.06 0.05 0.04 0.04 0.04 0.05 0.05 0.06 0.06 0.05 0.03 0.02 0.02 0.02 0.03 0.03 0.02 0.02 0.03
0.04 0.03 0.02 0.02 0.03 0.03 0.04 0.04 0.04 0.06 0.09 0.10 0.11 0.11 0.10 0.08 0.07 0.06 0.05 0.05 0.05 0.05 0.04 0.04 0.05 0.05 0.04 0.04 0.04 0.04 0.03 0.03 0.03 0.03 0.03 0.03 0.02 0.03
0.03 0.03 0.04 0.04 0.04 0.05 0.05 0.06 0.06 0.08 0.08 0.08 0.07 0.07 0.06 0.05 0.04 0.04 0.04 0.04 0.03 0.03 0.02 0.02 0.02 0.03 0.04 0.04 0.05 0.05 0.05 0.05 0.04 0.04 0.03 0.03 0.02 0.03
0.02 0.02 0.02 0.03 0.03 0.03 0.03 0.04 0.04 0.04 0.04 0.04 0.03 0.03 0.03 0.02 0.02 0.02 0.02 0.02 0.02 0.02 0.02 0.02 0.02 0.02 0.03 0.03 0.04 0.05 0.05 0.06 0.06 0.05 0.04 0.05 0.04 0.04
0.01 0.01 0.02 0.02 0.02 0.02 0.02 0.02 0.02 0.01 0.02 0.02 0.02 0.01 0.01 0.01 0.00 0.01 0.01 0.02 0.01 0.01 0.02 0.02 0.02 0.03 0.03 0.03 0.02 0.02 0.03 0.04 0.03 0.03 0.04 0.05 0.04 0.04
0.01 0.01 0.01 0.02 0.02 0.02 0.01 0.01 0.00 0.01 0.01 0.01 0.01 0.01 0.01 0.01 0.01 0.01 0.01 0.01 0.01 0.01 0.01 0.01 0.02 0.02 0.02 0.02 0.02 0.02 0.02 0.03 0.03 0.04 0.04 0.04 0.03 0.02
0.01 0.01 0.01 0.00 0.00 0.00 0.00 0.00 0.00 0.00 0.00 0.01 0.01 0.01 0.01 0.01 0.01 0.01 0.00 0.01 0.01 0.01 0.01 0.01 0.02 0.01 0.01 0.02 0.02 0.02 0.03 0.03 0.03 0.03 0.03 0.04 0.04 0.04
0.00 0.00 0.00 0.00 0.00 0.00 0.00 0.00 0.00 0.00 0.00 0.01 0.01 0.00 0.00 0.00 0.00 0.00 0.00 0.00 0.00 0.01 0.01 0.00 0.01 0.01 0.01 0.02 0.02 0.02 0.03 0.03 0.04 0.03 0.03 0.04 0.04 0.03
0.00 0.00 0.00 0.00 0.00 0.00 0.00 0.00 0.00 0.00 0.01 0.01 0.01 0.01 0.01 0.01 0.01 0.00 0.00 0.00 0.01 0.00 0.00 0.00 0.00 0.01 0.01 0.01 0.02 0.02 0.02 0.03 0.04 0.04 0.05 0.04 0.03 0.04
MSLP
1016.09 1016.37 1016.65 1016.93 1017.18 1017.37 1017.50 1017.53 1017.47 1017.32 1017.10 1016.84 1016.56 1016.29 1016.05 1015.87 1015.77 1015.74 1015.79 1015.91 1016.09 1016.31 1016.55 1016.78 1017.00 1017.18 1017.33 1017.45 1017.54 1017.62 1017.69 1017.78 1017.88 1017.98 1018.09 1018.19 1018.27 1018.31
1015.68 1015.93 1016.19 1016.45 1016.68 1016.88 1017.03 1017.11 1017.12 1017.06 1016.92 1016.73 1016.50 1016.26 1016.03 1015.82 1015.66 1015.56 1015.53 1015.57 1015.66 1015.81 1015.98 1016.17 1016.35 1016.51 1016.65 1016.77 1016.86 1016.95 1017.03 1017.11 1017.21 1017.31 1017.41 1017.49 1017.55 1017.58
1015.26 1015.51 1015.75 1015.98 1016.21 1016.42 1016.60 1016.73 1016.81 1016.83 1016.78 1016.68 1016.53 1016.34 1016.13 1015.92 1015.73 1015.57 1015.46 1015.40 1015.41 1015.46 1015.55 1015.67 1015.80 1015.92 1016.04 1016.14 1016.23 1016.31 1016.40 1016.49 1016.58 1016.68 1016.77 1016.85 1016.89 1016.91
1014.83 1015.10 1015.35 1015.59 1015.82 1016.05 1016.26 1016.44 1016.58 1016.68 1016.73 1016.72 1016.65 1016.52 1016.35 1016.15 1015.94 1015.73 1015.56 1015.41 1015.32 1015.28 1015.28 1015.31 1015.37 1015.44 1015.52 1015.59 1015.67 1015.75 1015.83 1015.92 1016.02 1016.11 1016.20 1016.27 1016.31 1016.32
1014.43 1014.74 1015.03 1015.30 1015.56 1015.82 1016.06 1016.29 1016.49 1016.66 1016.78 1016.84 1016.85 1016.78 1016.65 1016.47 1016.25 1016.02 1015.79 1015.57 1015.40 1015.26 1015.17 1015.12 1015.10 1015.11 1015.13 1015.17 1015.22 1015.28 1015.36 1015.44 1015.54 1015.63 1015.72 1015.78 1015.81 1015.81
1014.09 1014.48 1014.83 1015.16 1015.46 1015.75 1016.03 1016.29 1016.54 1016.75 1016.93 1017.05 1017.10 1017.08 1016.99 1016.84 1016.62 1016.37 1016.11 1015.84 1015.60 1015.39 1015.22 1015.08 1014.99 1014.93 1014.89 1014.89 1014.90 1014.93 1014.99 1015.06 1015.14 1015.23 1015.31 1015.36 1015.37 1015.34
1013.86 1014.33 1014.77 1015.17 1015.53 1015.86 1016.17 1016.46 1016.72 1016.95 1017.14 1017.29 1017.37 1017.38 1017.32 1017.18 1016.98 1016.74 1016.46 1016.17 1015.89 1015.62 1015.39 1015.20 1015.03 1014.91 1014.81 1014.75 1014.71 1014.70 1014.72 1014.76 1014.82 1014.88 1014.94 1014.97 1014.96 1014.89
1013.79 1014.35 1014.87 1015.34 1015.76 1016.13 1016.45 1016.74 1016.99 1017.21 1017.39 1017.52 1017.60 1017.62 1017.58 1017.46 1017.29 1017.06 1016.80 1016.51 1016.22 1015.93 1015.67 1015.43 1015.21 1015.03 1014.87 1014.75 1014.65 1014.59 1014.56 1014.55 1014.56 1014.58 1014.59 1014.58 1014.53 1014.42
1013.90 1014.54 1015.13 1015.66 1016.12 1016.51 1016.83 1017.09 1017.31 1017.48 1017.62 1017.72 1017.77 1017.78 1017.74 1017.65 1017.50 1017.31 1017.08 1016.83 1016.55 1016.28 1016.01 1015.75 1015.50 1015.27 1015.06 1014.88 1014.71 1014.58 1014.48 1014.40 1014.35 1014.30 1014.26 1014.19 1014.08 1013.91
1014.22 1014.91 1015.54 1016.10 1016.57 1016.95 1017.25 1017.47 1017.62 1017.73 1017.80 1017.85 1017.86 1017.85 1017.81 1017.73 1017.62 1017.48 1017.30 1017.10 1016.87 1016.63 1016.38 1016.12 1015.86 1015.60 1015.35 1015.10 1014.87 1014.66 1014.48 1014.32 1014.18 1014.06 1013.94 1013.80 1013.62 1013.40
1014.74 1015.43 1016.07 1016.62 1017.08 1017.43 1017.67 1017.83 1017.91 1017.94 1017.94 1017.92 1017.89 1017.85 1017.80 1017.75 1017.67 1017.58 1017.47 1017.33 1017.16 1016.97 1016.76 1016.52 1016.26 1015.98 1015.69 1015.39 1015.09 1014.81 1014.55 1014.30 1014.08 1013.87 1013.67 1013.45 1013.21 1012.92
1015.42 1016.07 1016.67 1017.18 1017.59 1017.89 1018.07 1018.16 1018.17 1018.13 1018.06 1017.98 1017.90 1017.84 1017.78 1017.74 1017.70 1017.66 1017.60 1017.52 1017.42 1017.28 1017.10 1016.89 1016.64 1016.36 1016.04 1015.70 1015.36 1015.01 1014.67 1014.35 1014.05 1013.76 1013.49 1013.20 1012.89 1012.54
1016.20 1016.77 1017.30 1017.75 1018.10 1018.33 1018.44 1018.46 1018.41 1018.31 1018.18 1018.06 1017.95 1017.86 1017.81 1017.77 1017.76 1017.75 1017.74 1017.70 1017.64 1017.54 1017.40 1017.21 1016.98 1016.69 1016.37 1016.00 1015.62 1015.23 1014.84 1014.46 1014.10 1013.75 1013.41 1013.08 1012.73 1012.34
1017.01 1017.49 1017.92 1018.29 1018.56 1018.72 1018.78 1018.75 1018.66 1018.52 1018.36 1018.21 1018.08 1017.98 1017.92 1017.89 1017.88 1017.89 1017.89 1017.88 1017.84 1017.76 1017.64 1017.46 1017.23 1016.95 1016.62 1016.25 1015.86 1015.44 1015.03 1014.62 1014.22 1013.85 1013.48 1013.11 1012.73 1012.33
1017.78 1018.15 1018.49 1018.77 1018.97 1019.08 1019.09 1019.04 1018.92 1018.77 1018.61 1018.45 1018.32 1018.21 1018.15 1018.11 1018.09 1018.08 1018.08 1018.05 1018.01 1017.92 1017.80 1017.62 1017.39 1017.12 1016.80 1016.43 1016.04 1015.63 1015.22 1014.81 1014.41 1014.03 1013.66 1013.29 1012.91 1012.50
1018.46 1018.73 1018.97 1019.17 1019.32 1019.39 1019.39 1019.33 1019.22 1019.08 1018.93 1018.79 1018.66 1018.56 1018.48 1018.42 1018.38 1018.34 1018.29 1018.23 1018.15 1018.03 1017.88 1017.69 1017.46 1017.19 1016.88 1016.53 1016.17 1015.78 1015.40 1015.01 1014.65 1014.29 1013.93 1013.58 1013.22 1012.82
1019.01 1019.18 1019.35 1019.50 1019.61 1019.66 1019.67 1019.62 1019.55 1019.44 1019.33 1019.21 1019.10 1019.00 1018.90 1018.81 1018.73 1018.63 1018.53 1018.41 1018.27 1018.10 1017.92 1017.70 1017.45 1017.18 1016.89 1016.57 1016.24 1015.89 1015.55 1015.21 1014.88 1014.56 1014.25 1013.93 1013.59 1013.21
1019.41 1019.53 1019.65 1019.77 1019.86 1019.92 1019.94 1019.93 1019.89 1019.84 1019.76 1019.67 1019.58 1019.48 1019.37 1019.24 1019.10 1018.95 1018.78 1018.59 1018.38 1018.16 1017.93 1017.68 1017.42 1017.15 1016.87 1016.57 1016.28 1015.98 1015.68 1015.39 1015.11 1014.83 1014.56 1014.27 1013.95 1013.60
1019.72 1019.81 1019.91 1020.01 1020.10 1020.17 1020.23 1020.26 1020.26 1020.25 1020.21 1020.15 1020.07 1019.96 1019.83 1019.67 1019.48 1019.27 1019.03 1018.78 1018.51 1018.24 1017.96 1017.69 1017.41 1017.14 1016.87 1016.60 1016.33 1016.07 1015.81 1015.56 1015.31 1015.07 1014.82 1014.55 1014.26 1013.92
1019.98 1020.06 1020.16 1020.26 1020.37 1020.46 1020.55 1020.61 1020.65 1020.66 1020.65 1020.61 1020.53 1020.41 1020.26 1020.06 1019.83 1019.57 1019.29 1018.98 1018.67 1018.36 1018.05 1017.76 1017.48 1017.20 1016.94 1016.68 1016.43 1016.19 1015.95 1015.72 1015.49 1015.26 1015.02 1014.76 1014.47 1014.14
1020.26 1020.35 1020.46 1020.58 1020.70 1020.82 1020.92 1021.00 1021.06 1021.09 1021.09 1021.04 1020.95 1020.82 1020.64 1020.41 1020.15 1019.86 1019.54 1019.21 1018.87 1018.54 1018.22 1017.92 1017.63 1017.36 1017.10 1016.85 1016.61 1016.37 1016.13 1015.90 1015.66 1015.42 1015.17 1014.91 1014.61 1014.26
1020.61 1020.73 1020.86 1021.00 1021.13 1021.26 1021.37 1021.46 1021.51 1021.53 1021.52 1021.45 1021.34 1021.18 1020.97 1020.72 1020.43 1020.11 1019.78 1019.44 1019.10 1018.77 1018.46 1018.17 1017.89 1017.62 1017.37 1017.12 1016.86 1016.61 1016.36 1016.10 1015.84 1015.57 1015.30 1015.00 1014.69 1014.33
1021.06 1021.21 1021.36 1021.52 1021.66 1021.80 1021.90 1021.97 1022.01 1022.00 1021.95 1021.85 1021.69 1021.49 1021.25 1020.97 1020.66 1020.34 1020.00 1019.67 1019.35 1019.04 1018.75 1018.47 1018.21 1017.96 1017.70 1017.45 1017.18 1016.91 1016.63 1016.34 1016.04 1015.74 1015.42 1015.10 1014.76 1014.38
Thickness
5746 5746 5745 5746 5747 5748 5747 5743 5735 5728 5730 5741 5745 5750 5749 5748 5745 5742 5740 5737 5734 5732 5730 5727 5725 5722 5720 5718 5716 5714 5712 5710 5709 5707 5705 5704 5702 5701
5744 5742 5742 5742 5743 5744 5743 5742 5739 5732 5728 5736 5740 5745 5746 5745 5741 5739 5738 5736 5733 5730 5728 5725 5723 5721 5718 5716 5714 5712 5710 5708 5706 5704 5702 5700 5699 5697
5741 5739 5738 5739 5738 5739 5739 5738 5736 5733 5727 5732 5738 5740 5739 5738 5736 5735 5734 5733 5731 5728 5726 5723 5721 5718 5716 5714 5711 5709 5706 5704 5702 5700 5698 5696 5694 5693
5737 5736 5735 5735 5733 5733 5733 5733 5732 5732 5727 5724 5728 5731 5732 5732 5731 5730 5730 5729 5728 5726 5724 5721 5718 5716 5713 5710 5708 5705 5703 5700 5697 5695 5693 5691 5689 5687
5734 5732 5731 5729 5727 5727 5727 5726 5726 5727 5725 5722 5721 5723 5725 5726 5724 5723 5723 5722 5723 5722 5720 5717 5714 5711 5709 5706 5703 5701 5698 5695 5692 5689 5687 5685 5683 5681
5730 5728 5727 5724 5723 5722 5721 5720 5720 5718 5718 5716 5714 5716 5716 5718 5716 5713 5711 5713 5713 5715 5714 5711 5709 5706 5703 5700 5698 5694 5691 5688 5685 5682 5680 5677 5675 5673
5724 5723 5721 5719 5718 5717 5715 5713 5712 5710 5708 5707 5706 5706 5706 5705 5703 5704 5701 5702 5703 5704 5703 5702 5700 5698 5695 5693 5691 5688 5684 5681 5677 5674 5672 5669 5667 5665
5717 5716 5714 5712 5711 5709 5707 5706 5705 5702 5699 5698 5697 5696 5696 5695 5695 5694 5691 5689 5688 5694 5691 5690 5691 5688 5687 5685 5683 5680 5676 5672 5669 5665 5662 5660 5658 5655
5711 5708 5707 5706 5704 5702 5700 5698 5696 5695 5693 5691 5688 5687 5686 5685 5684 5682 5680 5679 5678 5682 5681 5679 5680 5677 5677 5675 5673 5670 5667 5663 5659 5656 5653 5651 5648 5646
5703 5701 5698 5696 5694 5692 5692 5690 5688 5687 5686 5684 5682 5680 5679 5677 5676 5674 5672 5671 5672 5672 5671 5666 5667 5666 5666 5663 5661 5658 5655 5652 5648 5645 5642 5640 5637 5635
5693 5691 5689 5686 5684 5684 5683 5680 5679 5677 5676 5675 5673 5671 5669 5667 5665 5663 5661 5658 5656 5656 5657 5653 5652 5651 5650 5649 5647 5644 5641 5638 5635 5632 5629 5626 5624 5621
5683 5680 5677 5675 5673 5673 5672 5670 5667 5666 5666 5665 5663 5662 5659 5657 5654 5650 5647 5644 5642 5640 5640 5637 5635 5633 5632 5633 5631 5629 5626 5624 5621 5618 5615 5612 5609 5605
5673 5669 5665 5663 5662 5661 5660 5658 5655 5654 5654 5654 5653 5650 5648 5644 5641 5638 5634 5631 5626 5623 5623 5621 5618 5615 5612 5613 5613 5612 5610 5608 5605 5603 5600 5597 5594 5591
5661 5658 5654 5652 5651 5650 5649 5647 5645 5644 5643 5642 5639 5635 5632 5629 5626 5624 5621 5618 5614 5611 5609 5606 5602 5599 5595 5594 5594 5595 5594 5592 5589 5587 5585 5583 5581 5578
5650 5647 5644 5642 5641 5639 5637 5635 5634 5632 5630 5627 5623 5620 5618 5615 5613 5611 5608 5605 5602 5599 5596 5593 5589 5585 5580 5577 5577 5577 5576 5575 5574 5572 5570 5568 5566 5564
5639 5637 5634 5632 5630 5628 5625 5624 5621 5617 5614 5611 5607 5605 5603 5601 5599 5596 5593 5590 5587 5584 5582 5579 5575 5571 5567 5564 5562 5561 5560 5559 5559 5557 5555 5554 5553 5550
5628 5627 5625 5622 5618 5615 5612 5610 5606 5603 5599 5596 5593 5590 5587 5585 5582 5581 5577 5574 5571 5568 5566 5564 5561 5558 5555 5552 5550 5549 5547 5545 5544 5543 5542 5541 5539 5537
5618 5615 5612 5608 5604 5601 5598 5595 5591 5587 5584 5581 5578 5575 5572 5569 5567 5564 5561 5558 5555 5553 5550 5548 5547 5545 5542 5540 5538 5536 5534 5532 5531 5530 5529 5528 5527 5526
5606 5602 5597 5593 5590 5586 5583 5579 5576 5573 5570 5567 5564 5561 5558 5555 5552 5549 5546 5543 5540 5537 5535 5534 5532 5529 5526 5525 5526 5523 5521 5521 5521 5520 5518 5516 5516 5516
5593 5588 5584 5580 5576 5572 5569 5565 5562 5559 5555 5552 5549 5546 5543 5540 5537 5534 5531 5527 5525 5523 5522 5520 5518 5515 5512 5511 5512 5513 5513 5511 5511 5510 5509 5508 5507 5507
5579 5575 5571 5566 5562 5558 5555 5552 5549 5545 5541 5538 5534 5531 5528 5525 5522 5519 5517 5514 5512 5511 5508 5507 5506 5505 5504 5504 5503 5505 5505 5503 5502 5500 5500 5499 5499 5499
5566 5562 5558 5554 5549 5546 5542 5539 5535 5531 5527 5523 5520 5517 5514 5511 5508 5506 5504 5502 5500 5498 5497 5497 5497 5497 5496 5495 5495 5496 5497 5496 5496 5495 5493 5491 5489 5489
5553 5550 5546 5542 5538 5534 5530 5526 5522 5517 5513 5509 5506 5503 5501 5499 5497 5495 5493 5491 5489 5488 5487 5487 5488 5488 5488 5488 5488 5489 5490 5489 5489 5489 5488 5486 5484 5483